User: anonymous   Login
Location: Unspecified
(0.0000°N, 0.0000°E)
Time: 09:46:05
(UTC+00:00)
Language:

SR - Orbit

View from above orbital plane
View from above orbital plane
View from above satellite
View from above satellite

Ground track
Ground track

The orbit data is extracted from the following two-line orbital elements,

1 00046U 60007B   14325.83763477  .00002210  00000-0  46348-3 0  7871
2 00046 066.6904 141.2761 0217331 208.9226 149.9698 14.47998130844335
Epoch (UTC): 21 November 2014 20:06:11
Eccentricity: 0.0217331
inclination: 66.6904°
perigee height: 577 km
apogee height: 887 km
right ascension of ascending node: 141.2761°
argument of perigee: 208.9226°
revolutions per day: 14.47998130
mean anomaly at epoch: 149.9698°
orbit number at epoch: 84433

The dashed part of the orbit path shows where the satellite is in the earth's shadow,  

DLR